Back to catalog

STARLINK-37897

AliveCommunicationsVLEO
NORAD 69531·PAYLOAD·🇺🇸 United States

Launched Jun 12, 2026 from Cape Canaveral Space Force Station

Loading…

Next Passes (next 24 hours)

TLE

FreshSource: CelesTrak SupGP

Epoch: Sep 14, 2026, 23:16 UTC

1 69531C 26133Z   26257.96993056  .00033630  00000+0  99347-3 0  2574
2 69531  53.1570 255.2103 0001377  92.4635 126.9193 15.34378229    18

Track STARLINK-37897 in real time with AllMySat

Download on the App Store